H1 CPF 2 NER 2025 10 16 9 289 01 glonass137 H2 1705501 9137 42939 2025 10 16 0 0 0 2025 10 19 23 45 0 900 1 1 0 0 0 1 H9 10 0 60964 0.00000 0 -2199072.686 11267151.134 -22768908.621 10 0 60964 900.00000 0 -4952508.413 11601918.750 -22162447.418 10 0 60964 1800.00000 0 -7575203.892 12114149.538 -21125233.141 10 0 60964 2700.00000 0 -10006005.977 12774923.603 -19677510.434 10 0 60964 3600.00000 0 -12191135.893 13545521.321 -17847491.560 10 0 60964 4500.00000 0 -14086178.457 14379111.271 -15670802.626 10 0 60964 5400.00000 0 -15657683.020 15222796.332 -13189786.634 10 0 60964 6300.00000 0 -16884310.767 16019931.423 -10452677.024 10 0 60964 7200.00000 0 -17757482.034 16712614.991 -7512657.903 10 0 60964 8100.00000 0 -18281498.186 17244249.052 -4426829.311 10 0 60964 9000.00000 0 -18473134.601 17562059.757 -1255097.718 10 0 60964 9900.00000 0 -18360723.347 17619472.141 1940986.519 10 0 60964 10800.00000 0 -17982765.512 17378238.902 5099422.069 10 0 60964 11700.00000 0 -17386132.659 16810233.423 8158956.714 10 0 60964 12600.00000 0 -16623933.994 15898831.417 11060271.324 10 0 60964 13500.00000 0 -15753139.570 14639822.818 13747124.943 10 0 60964 14400.00000 0 -14832059.811 13041815.217 16167439.161 10 0 60964 15300.00000 0 -13917787.386 11126111.322 18274301.203 10 0 60964 16200.00000 0 -13063708.723 8926064.748 20026866.985 10 0 60964 17100.00000 0 -12317189.310 6485939.972 21391147.351 10 0 60964 18000.00000 0 -11717529.516 3859322.754 22340662.970 10 0 60964 18900.00000 0 -11294276.232 1107145.756 22856955.824 10 0 60964 19800.00000 0 -11065960.865 -1704590.151 22929947.843 10 0 60964 20700.00000 0 -11039316.448 -4507305.782 22558139.853 10 0 60964 21600.00000 0 -11209006.858 -7232442.961 21748646.900 10 0 60964 22500.00000 0 -11557879.843 -9814066.806 20517068.761 10 0 60964 23400.00000 0 -12057733.868 -12191364.084 18887197.413 10 0 60964 24300.00000 0 -12670567.290 -14310934.796 16890566.175 10 0 60964 25200.00000 0 -13350258.165 -16128782.313 14565848.143 10 0 60964 26100.00000 0 -14044604.669 -17611919.527 11958114.544 10 0 60964 27000.00000 0 -14697640.673 -18739524.102 9117966.425 10 0 60964 27900.00000 0 -15252129.040 -19503594.642 6100555.827 10 0 60964 28800.00000 0 -15652127.211 -19909080.248 2964515.086 10 0 60964 29700.00000 0 -15845516.134 -19973478.001 -229184.941 10 0 60964 30600.00000 0 -15786384.737 -19725915.539 -3418425.226 10 0 60964 31500.00000 0 -15437167.836 -19205757.593 -6541153.640 10 0 60964 32400.00000 0 -14770445.733 -18460795.907 -9536600.225 10 0 60964 33300.00000 0 -13770327.941 -17545099.640 -12346468.072 10 0 60964 34200.00000 0 -12433361.147 -16516617.869 -14916075.567 10 0 60964 35100.00000 0 -10768921.773 -15434636.371 -17195426.962 10 0 60964 36000.00000 0 -8799075.313 -14357196.825 -19140189.805 10 0 60964 36900.00000 0 -6557907.425 -13338588.127 -20712559.806 10 0 60964 37800.00000 0 -4090354.010 -12427016.090 -21881996.246 10 0 60964 38700.00000 0 -1450578.664 -11662549.958 -22625813.809 10 0 60964 39600.00000 0 1300035.165 -11075432.133 -22929619.688 10 0 60964 40500.00000 0 4095193.935 -10684821.921 -22787588.005 10 0 60964 41400.00000 0 6866209.837 -10498025.511 -22202566.775 10 0 60964 42300.00000 0 9544618.375 -10510243.813 -21186015.871 10 0 60964 43200.00000 0 12064789.298 -10704847.873 -19757777.702 10 0 60964 44100.00000 0 14366422.978 -11054169.343 -17945685.404 10 0 60964 45000.00000 0 16396829.090 -11520771.838 -15785016.465 10 0 60964 45900.00000 0 18112893.748 -12059148.878 -13317802.577 10 0 60964 46800.00000 0 19482654.211 -12617776.138 -10592009.231 10 0 60964 47700.00000 0 20486416.731 -13141430.951 -7660601.142 10 0 60964 48600.00000 0 21117372.198 -13573680.803 -4580511.751 10 0 60964 49500.00000 0 21381685.269 -13859435.471 -1411536.915 10 0 60964 50400.00000 0 21298054.624 -13947454.886 1784825.543 10 0 60964 51300.00000 0 20896764.134 -13792706.710 4946567.808 10 0 60964 52200.00000 0 20218265.938 -13358474.025 8012372.380 10 0 60964 53100.00000 0 19311355.874 -12618124.071 10922797.414 10 0 60964 54000.00000 0 18231018.598 -11556463.305 13621424.308 10 0 60964 54900.00000 0 17036033.297 -10170621.349 16055945.607 10 0 60964 55800.00000 0 15786440.600 -8470426.115 18179172.625 10 0 60964 56700.00000 0 14540976.832 -6478253.575 19949943.881 10 0 60964 57600.00000 0 13354582.777 -4228357.345 21333917.502 10 0 60964 58500.00000 0 12276090.830 -1765704.820 22304232.895 10 0 60964 59400.00000 0 11346186.805 855633.170 22842029.551 10 0 60964 60300.00000 0 10595731.114 3574473.775 22936813.345 10 0 60964 61200.00000 0 10044509.183 6324813.562 22586663.425 10 0 60964 62100.00000 0 9700463.106 9038326.402 21798275.574 10 0 60964 63000.00000 0 9559436.670 11646965.689 20586840.722 10 0 60964 63900.00000 0 9605444.576 14085564.055 18975760.281 10 0 60964 64800.00000 0 9811454.917 16294323.610 16996202.798 10 0 60964 65700.00000 0 10140652.453 18221093.821 14686509.480 10 0 60964 66600.00000 0 10548130.011 19823342.467 12091459.023 10 0 60964 67500.00000 0 10982937.080 21069737.600 9261405.056 10 0 60964 68400.00000 0 11390399.353 21941274.300 6251302.233 10 0 60964 69300.00000 0 11714611.095 22431898.735 3119639.483 10 0 60964 70200.00000 0 11900994.533 22548603.320 -72698.841 10 0 60964 71100.00000 0 11898817.157 22310988.700 -3263621.495 10 0 60964 72000.00000 0 11663559.238 21750311.036 -6391044.772 10 0 60964 72900.00000 0 11159030.090 20908055.149 -9394108.298 10 0 60964 73800.00000 0 10359142.010 19834094.056 -12214367.619 10 0 60964 74700.00000 0 9249265.428 18584513.245 -14796939.309 10 0 60964 75600.00000 0 7827106.551 17219192.150 -17091575.490 10 0 60964 76500.00000 0 6103069.118 15799245.565 -19053646.227 10 0 60964 77400.00000 0 4100083.877 14384433.494 -20645010.247 10 0 60964 78300.00000 0 1852911.954 13030649.012 -21834756.975 10 0 60964 79200.00000 0 -593049.501 11787590.029 -22599805.622 10 0 60964 80100.00000 0 -3183410.040 10696712.811 -22925350.025 10 0 60964 81000.00000 0 -5856808.894 9789552.807 -22805141.140 10 0 60964 81900.00000 0 -8547234.316 9086482.614 -22241602.247 10 0 60964 82800.00000 0 -11186543.025 8595958.291 -21245775.192 10 0 60964 83700.00000 0 -13707075.317 8314284.514 -19837099.207 10 0 60964 84600.00000 0 -16044257.543 8225907.217 -18043026.983 10 0 60964 85500.00000 0 -18139084.182 8304220.146 -15898485.723 10 0 60965 0.00000 0 -19940376.750 8512850.206 -13445194.088 10 0 60965 900.00000 0 -21406727.146 8807366.491 -10730847.014 10 0 60965 1800.00000 0 -22508042.975 9137339.757 -7808187.728 10 0 60965 2700.00000 0 -23226634.582 9448665.095 -4733980.687 10 0 60965 3600.00000 0 -23557797.013 9686048.909 -1567908.714 10 0 60965 4500.00000 0 -23509864.698 9795554.837 1628585.352 10 0 60965 5400.00000 0 -23103737.567 9727100.774 4793489.681 10 0 60965 6300.00000 0 -22371899.488 9436801.307 7865423.967 10 0 60965 7200.00000 0 -21356971.114 8889056.487 10784826.138 10 0 60965 8100.00000 0 -20109858.537 8058298.617 13495102.390 10 0 60965 9000.00000 0 -18687575.794 6930323.120 15943718.594 10 0 60965 9900.00000 0 -17150832.703 5503146.994 18083212.368 10 0 60965 10800.00000 0 -15561488.911 3787358.097 19872106.839 10 0 60965 11700.00000 0 -13979980.367 1805939.601 21275709.110 10 0 60965 12600.00000 0 -12462825.290 -406424.270 22266778.683 10 0 60965 13500.00000 0 -11060313.182 -2804533.734 22826053.504 10 0 60965 14400.00000 0 -9814472.681 -5334302.426 22942623.930 10 0 60965 15300.00000 0 -8757402.469 -7934763.817 22614147.534 10 0 60965 16200.00000 0 -7910034.368 -10540373.372 21846900.507 10 0 60965 17100.00000 0 -7281379.907 -13083512.438 20655664.208 10 0 60965 18000.00000 0 -6868291.667 -15497091.171 19063448.344 10 0 60965 18900.00000 0 -6655749.343 -17717143.419 17101055.201 10 0 60965 19800.00000 0 -6617658.626 -19685306.366 14806492.257 10 0 60965 20700.00000 0 -6718129.474 -21351081.978 12224243.556 10 0 60965 21600.00000 0 -6913180.121 -22673785.999 9404412.961 10 0 60965 22500.00000 0 -7152794.999 -23624102.782 6401755.193 10 0 60965 23400.00000 0 -7383249.487 -24185180.580 3274613.122 10 0 60965 24300.00000 0 -7549602.784 -24353220.856 83781.861 10 0 60965 25200.00000 0 -7598252.652 -24137536.387 -3108677.936 10 0 60965 26100.00000 0 -7479442.852 -23560075.592 -6240653.799 10 0 60965 27000.00000 0 -7149615.801 -22654432.884 -9251197.769 10 0 60965 27900.00000 0 -6573509.389 -21464387.020 -12081720.661 10 0 60965 28800.00000 0 -5725907.816 -20042029.492 -14677139.977 10 0 60965 29700.00000 0 -4592970.889 -18445562.241 -16986958.312 10 0 60965 30600.00000 0 -3173084.266 -16736858.072 -18966250.623 10 0 60965 31500.00000 0 -1477193.556 -14978887.062 -20576540.705 10 0 60965 32400.00000 0 471392.886 -13233117.614 -21786549.775 10 0 60965 33300.00000 0 2637725.110 -11557001.580 -22572802.756 10 0 60965 34200.00000 0 4976427.186 -10001648.972 -22920080.826 10 0 60965 35100.00000 0 7433357.058 -8609789.392 -22821711.969 10 0 60965 36000.00000 0 9947641.802 -7414104.924 -22279694.462 10 0 60965 36900.00000 0 12454003.803 -6436003.362 -21304651.415 10 0 60965 37800.00000 0 14885281.297 -5684881.912 -19915617.781 10 0 60965 38700.00000 0 17175038.666 -5157910.816 -18139664.302 10 0 60965 39600.00000 0 19260158.173 -4840344.468 -16011366.023 10 0 60965 40500.00000 0 21083305.607 -4706345.421 -13572125.835 10 0 60965 41400.00000 0 22595167.640 -4720285.194 -10869366.346 10 0 60965 42300.00000 0 23756368.161 -4838465.824 -7955605.851 10 0 60965 43200.00000 0 24538984.318 -5011188.478 -4887436.476 10 0 60965 44100.00000 0 24927599.705 -5185080.950 -1724424.427 10 0 60965 45000.00000 0 24919851.516 -5305585.059 1472046.140 10 0 60965 45900.00000 0 24526449.643 -5319498.394 4639963.048 10 0 60965 46800.00000 0 23770667.764 -5177462.650 7717886.707 10 0 60965 47700.00000 0 22687328.511 -4836293.199 10646138.048 10 0 60965 48600.00000 0 21321325.836 -4261051.354 13367950.925 10 0 60965 49500.00000 0 19725746.854 -3426771.671 15830566.948 10 0 60965 50400.00000 0 17959671.913 -2319771.141 17986251.978 10 0 60965 51300.00000 0 16085744.841 -938484.674 19793215.188 10 0 60965 52200.00000 0 14167614.469 706209.047 21216413.638 10 0 60965 53100.00000 0 12267353.733 2591186.069 22228227.421 10 0 60965 54000.00000 0 10442963.257 4681793.090 22808992.989 10 0 60965 54900.00000 0 8746062.663 6933052.503 22947384.780 10 0 60965 55800.00000 0 7219865.017 9291308.035 22640637.965 10 0 60965 56700.00000 0 5897518.052 11696244.222 21894607.900 10 0 60965 57600.00000 0 4800880.680 14083197.397 20723664.736 10 0 60965 58500.00000 0 3939785.371 16385663.512 19150424.500 10 0 60965 59400.00000 0 3311816.868 18537899.660 17205320.928 10 0 60965 60300.00000 0 2902616.303 20477511.844 14926025.261 10 0 60965 61200.00000 0 2686697.853 22147921.505 12356724.185 10 0 60965 62100.00000 0 2628743.532 23500607.971 9547268.956 10 0 60965 63000.00000 0 2685321.450 24497032.773 6552211.456 10 0 60965 63900.00000 0 2806954.790 25110164.758 3429745.540 10 0 60965 64800.00000 0 2940453.628 25325541.407 240574.147 10 0 60965 65700.00000 0 3031410.248 25141821.085 -2953275.486 10 0 60965 66600.00000 0 3026751.355 24570802.365 -6089664.811 10 0 60965 67500.00000 0 2877237.868 23636909.209 -9107560.750 10 0 60965 68400.00000 0 2539805.099 22376163.629 -11948231.558 10 0 60965 69300.00000 0 1979642.786 20834689.035 -14556397.529 10 0 60965 70200.00000 0 1171925.555 19066807.598 -16881313.290 10 0 60965 71100.00000 0 103119.288 17132812.040 -18877759.928 10 0 60965 72000.00000 0 -1228192.984 15096505.967 -20506927.286 10 0 60965 72900.00000 0 -2811001.592 13022616.425 -21737169.091 10 0 60965 73800.00000 0 -4622091.081 10974187.459 -22544616.461 10 0 60965 74700.00000 0 -6626782.933 9010063.907 -22913638.144 10 0 60965 75600.00000 0 -8780169.646 7182570.453 -22837139.117 10 0 60965 76500.00000 0 -11028789.073 5535482.416 -22316692.288 10 0 60965 77400.00000 0 -13312669.449 4102372.173 -21362501.319 10 0 60965 78300.00000 0 -15567660.069 2905399.144 -19993195.774 10 0 60965 79200.00000 0 -17727950.746 1954592.434 -18235462.972 10 0 60965 80100.00000 0 -19728675.188 1247654.542 -16123523.958 10 0 60965 81000.00000 0 -21508490.040 770292.641 -13698463.971 10 0 60965 81900.00000 0 -23012022.317 497061.798 -11007430.502 10 0 60965 82800.00000 0 -24192083.385 392683.094 -8102714.634 10 0 60965 83700.00000 0 -25011557.463 413779.726 -5040733.582 10 0 60965 84600.00000 0 -25444886.166 510956.683 -1880934.308 10 0 60965 85500.00000 0 -25479087.544 631135.269 1315360.364 10 0 60966 0.00000 0 -25114267.603 720043.140 4486140.302 10 0 60966 900.00000 0 -24363603.213 724754.185 7569909.866 10 0 60966 1800.00000 0 -23252798.250 596170.497 10506875.339 10 0 60966 2700.00000 0 -21819035.520 291341.536 13240100.786 10 0 60966 3600.00000 0 -20109469.007 -224477.697 15716605.977 10 0 60966 4500.00000 0 -18179319.460 -976116.411 17888387.212 10 0 60966 5400.00000 0 -16089652.716 -1977198.101 19713341.621 10 0 60966 6300.00000 0 -13904933.087 -3229325.739 21156077.749 10 0 60966 7200.00000 0 -11690453.202 -4721777.101 22188597.393 10 0 60966 8100.00000 0 -9509746.567 -6431724.121 22790836.169 10 0 60966 9000.00000 0 -7422089.595 -8324968.499 22951052.803 10 0 60966 9900.00000 0 -5480196.129 -10357164.404 22666059.821 10 0 60966 10800.00000 0 -3728199.428 -12475478.970 21941291.106 10 0 60966 11700.00000 0 -2200004.753 -14620623.080 20790704.582 10 0 60966 12600.00000 0 -918080.527 -16729169.353 19236521.242 10 0 60966 13500.00000 0 107262.108 -18736062.020 17308804.619 10 0 60966 14400.00000 0 878071.631 -20577215.057 15044887.778 10 0 60966 15300.00000 0 1408432.198 -22192090.643 12488657.879 10 0 60966 16200.00000 0 1723627.260 -23526150.312 9689711.196 10 0 60966 17100.00000 0 1858826.190 -24533076.094 6702394.250 10 0 60966 18000.00000 0 1857349.572 -25176667.928 3584749.260 10 0 60966 18900.00000 0 1768586.871 -25432336.951 397384.336 10 0 60966 19800.00000 0 1645655.182 -25288131.052 -2797709.377 10 0 60966 20700.00000 0 1542899.009 -24745248.591 -5938369.917 10 0 60966 21600.00000 0 1513338.114 -23818017.977 -8963481.697 10 0 60966 22500.00000 0 1606172.760 -22533343.424 -11814172.983 10 0 60966 23400.00000 0 1864453.367 -20929639.929 -14434969.345 10 0 60966 24300.00000 0 2323014.558 -19055302.250 -16774879.762 10 0 60966 25200.00000 0 3006762.301 -16966772.263 -18788393.587 10 0 60966 26100.00000 0 3929387.664 -14726286.211 -20436368.548 10 0 60966 27000.00000 0 5092562.511 -12399396.594 -21686792.393 10 0 60966 27900.00000 0 6485651.863 -10052372.692 -22515403.547 10 0 60966 28800.00000 0 8085955.769 -7749588.548 -22906159.018 10 0 60966 29700.00000 0 9859471.071 -5551007.361 -22851541.040 10 0 60966 30600.00000 0 11762141.615 -3509866.801 -22352697.021 10 0 60966 31500.00000 0 13741544.901 -1670661.077 -21419410.654 10 0 60966 32400.00000 0 15738944.879 -67502.795 -20069905.244 10 0 60966 33300.00000 0 17691625.380 1277068.401 -18330483.452 10 0 60966 34200.00000 0 19535406.764 2352782.265 -16235010.747 10 0 60966 35100.00000 0 21207240.883 3161812.131 -13824252.762 10 0 60966 36000.00000 0 22647776.030 3718421.370 -11145079.539 10 0 60966 36900.00000 0 23803784.845 4048098.762 -8249552.246 10 0 60966 37800.00000 0 24630353.792 4186220.827 -5193910.159 10 0 60966 38700.00000 0 25092742.890 4176298.882 -2037477.702 10 0 60966 39600.00000 0 25167838.063 4067885.981 1158487.083 10 0 60966 40500.00000 0 24845135.646 3914233.044 4331980.156 10 0 60966 41400.00000 0 24127218.111 3769793.831 7421452.082 10 0 60966 42300.00000 0 23029701.414 3687684.631 10366998.270 10 0 60966 43200.00000 0 21580656.374 3717206.229 13111515.917 10 0 60966 44100.00000 0 19819528.387 3901532.883 15601805.516 10 0 60966 45000.00000 0 17795600.588 4275665.918 17789595.983 10 0 60966 45900.00000 0 15566064.311 4864738.299 19632474.184 10 0 60966 46800.00000 0 13193776.846 5682741.826 21094701.507 10 0 60966 47700.00000 0 10744799.186 6731730.951 22147902.399 10 0 60966 48600.00000 0 8285815.351 8001537.392 22771612.152 10 0 60966 49500.00000 0 5881539.542 9470008.589 22953673.855 10 0 60966 50400.00000 0 3592217.838 11103761.329 22690477.008 10 0 60966 51300.00000 0 1471327.172 12859420.551 21987033.158 10 0 60966 52200.00000 0 -436433.796 14685293.198 20856886.686 10 0 60966 53100.00000 0 -2096779.133 16523408.727 19321861.791 10 0 60966 54000.00000 0 -3487028.120 18311842.493 17411649.649 10 0 60966 54900.00000 0 -4596806.547 19987226.006 15163242.669 10 0 60966 55800.00000 0 -5428227.911 21487339.804 12620225.751 10 0 60966 56700.00000 0 -5995547.313 22753680.731 9831937.286 10 0 60966 57600.00000 0 -6324302.880 23733895.898 6852515.431 10 0 60966 58500.00000 0 -6449981.178 24383980.583 3739847.727 10 0 60966 59400.00000 0 -6416263.444 24670147.121 554444.417 10 0 60966 60300.00000 0 -6272927.249 24570284.972 -2641742.391 10 0 60966 61200.00000 0 -6073493.147 24074949.383 -5786530.146 10 0 60966 62100.00000 0 -5872717.006 23187836.149 -8818723.379 10 0 60966 63000.00000 0 -5724035.344 21925721.481 -11679312.749 10 0 60966 63900.00000 0 -5677073.097 20317868.930 -14312631.187 10 0 60966 64800.00000 0 -5775320.584 18404927.847 -16667443.809 10 0 60966 65700.00000 0 -6054079.178 16237369.458 -18697949.703 10 0 60966 66600.00000 0 -6538763.572 13873526.220 -20364675.662 10 0 60966 67500.00000 0 -7243633.252 11377316.704 -21635244.356 10 0 60966 68400.00000 0 -8171007.432 8815751.338 -22485002.141 10 0 60966 69300.00000 0 -9310997.053 6256323.270 -22897494.655 10 0 60966 70200.00000 0 -10641765.542 3764393.124 -22864781.463 10 0 60966 71100.00000 0 -12130307.700 1400676.282 -22387584.216 10 0 60966 72000.00000 0 -13733714.227 -781063.225 -21475266.029 10 0 60966 72900.00000 0 -15400869.032 -2736017.137 -20145642.946 10 0 60966 73800.00000 0 -17074508.339 -4429953.423 -18424631.594 10 0 60966 74700.00000 0 -18693555.427 -5840386.692 -16345740.106 10 0 60966 75600.00000 0 -20195633.292 -6957251.433 -13949412.434 10 0 60966 76500.00000 0 -21519650.091 -7783051.769 -11282238.845 10 0 60966 77400.00000 0 -22608349.085 -8332483.292 -8396048.060 10 0 60966 78300.00000 0 -23410716.293 -8631544.690 -5346898.748 10 0 60966 79200.00000 0 -23884145.027 -8716178.152 -2193990.032 10 0 60966 80100.00000 0 -23996266.620 -8630497.248 1001487.653 10 0 60966 81000.00000 0 -23726370.692 -8424678.170 4177538.944 10 0 60966 81900.00000 0 -23066355.497 -8152604.212 7272564.063 10 0 60966 82800.00000 0 -22021168.625 -7869363.525 10226550.110 10 0 60966 83700.00000 0 -20608719.565 -7628706.165 12982230.176 10 0 60966 84600.00000 0 -18859267.734 -7480567.908 15486188.077 10 0 60966 85500.00000 0 -16814311.297 -7468765.288 17689887.713 10 0 60967 0.00000 0 -14525022.955 -7628958.960 19550607.552 10 0 60967 900.00000 0 -12050296.032 -7986971.275 21032263.794 10 0 60967 1800.00000 0 -9454484.489 -8557528.726 22106104.518 10 0 60967 2700.00000 0 -6804925.803 -9343482.751 22751265.392 10 0 60967 3600.00000 0 -4169351.471 -10335542.078 22955174.073 10 0 60967 4500.00000 0 -1613290.310 -11512528.825 22713796.798 10 0 60967 5400.00000 0 802428.644 -12842148.798 22031722.129 10 0 60967 6300.00000 0 3023971.111 -14282245.138 20922079.883 10 0 60967 7200.00000 0 5006495.993 -15782484.243 19406296.109 10 0 60967 8100.00000 0 6715774.976 -17286404.784 17513687.975 10 0 60967 9000.00000 0 8129366.456 -18733745.173 15280905.299 10 0 60967 9900.00000 0 9237295.288 -20062952.806 12751228.516 10 0 60967 10800.00000 0 10042210.257 -21213770.310 9973735.691 10 0 60967 11700.00000 0 10559013.029 -22129790.192 7002353.954 10 0 60967 12600.00000 0 10813974.494 -22760870.193 3894813.356 10 0 60967 13500.00000 0 10843376.150 -23065306.910 711523.378 10 0 60967 14400.00000 0 10691734.343 -23011675.109 -2485605.863 10 0 60967 15300.00000 0 10409683.176 -22580254.079 -5634374.105 10 0 60967 16200.00000 0 10051606.445 -21763979.514 -8673508.797 10 0 60967 17100.00000 0 9673119.939 -20568879.718 -11543865.649 10 0 60967 18000.00000 0 9328511.867 -19013976.890 -14189587.443 10 0 60967 18900.00000 0 9068250.831 -17130656.698 -16559197.706 10 0 60967 19800.00000 0 8936667.913 -14961532.147 -18606607.284 10 0 60967 20700.00000 0 8969911.818 -12558849.110 -20292013.752 10 0 60967 21600.00000 0 9194264.266 -9982500.189 -21582676.063 10 0 60967 22500.00000 0 9624887.274 -7297729.907 -22453549.486 10 0 60967 23400.00000 0 10265055.514 -4572627.049 -22887768.847 10 0 60967 24300.00000 0 11105906.272 -1875508.572 -22876971.194 10 0 60967 25200.00000 0 12126717.600 727696.249 -22421452.191 10 0 60967 26100.00000 0 13295702.947 3175953.056 -21530153.763 10 0 60967 27000.00000 0 14571288.806 5415417.466 -20220483.757 10 0 60967 27900.00000 0 15903821.680 7401423.550 -18517971.491 10 0 60967 28800.00000 0 17237632.597 9100084.158 -16455766.185 10 0 60967 29700.00000 0 18513372.454 10489437.967 -14073988.203 10 0 60967 30600.00000 0 19670520.121 11560097.061 -11418945.803 10 0 60967 31500.00000 0 20649957.920 12315369.756 -8542232.715 10 0 60967 32400.00000 0 21396506.288 12770855.336 -5499724.166 10 0 60967 33300.00000 0 21861311.156 12953529.461 -2350490.916 10 0 60967 34200.00000 0 22003983.681 12900360.245 844347.422 10 0 60967 35100.00000 0 21794402.461 12656514.638 4022807.419 10 0 60967 36000.00000 0 21214102.496 12273231.750 7123242.145 10 0 60967 36900.00000 0 20257192.478 11805453.584 10085533.438 10 0 60967 37800.00000 0 18930761.838 11309313.593 12852253.087 10 0 60967 38700.00000 0 17254760.167 10839589.189 15369770.757 10 0 60967 39600.00000 0 15261353.687 10447225.613 17589287.530 10 0 60967 40500.00000 0 12993785.027 10177035.329 19467775.648 10 0 60967 41400.00000 0 10504783.109 10065669.613 20968806.964 10 0 60967 42300.00000 0 7854588.381 10139947.486 22063254.710 10 0 60967 43200.00000 0 5108674.389 10415612.214 22729855.690 10 0 60967 44100.00000 0 2335259.078 10896567.778 22955622.485 10 0 60967 45000.00000 0 -397292.208 11574627.847 22736097.965 10 0 60967 45900.00000 0 -3023065.572 12429788.509 22075447.137 10 0 60967 46800.00000 0 -5481092.684 13431014.332 20986384.183 10 0 60967 47700.00000 0 -7717637.691 14537505.950 19489935.464 10 0 60967 48600.00000 0 -9688182.791 15700397.200 17615042.138 10 0 60967 49500.00000 0 -11359030.537 16864811.746 15398009.060 10 0 60967 50400.00000 0 -12708456.557 17972193.743 12881809.536 10 0 60967 51300.00000 0 -13727364.883 18962815.161 10115258.432 10 0 60967 52200.00000 0 -14419418.688 19778354.493 7152068.881 10 0 60967 53100.00000 0 -14800641.227 20364438.057 4049810.437 10 0 60967 54000.00000 0 -14898504.053 20673036.133 868788.831 10 0 60967 54900.00000 0 -14750541.343 20664611.925 -2329130.695 10 0 60967 55800.00000 0 -14402549.349 20309931.385 -5481732.962 10 0 60967 56700.00000 0 -13906447.817 19591456.144 -8527670.989 10 0 60967 57600.00000 0 -13317894.838 18504259.553 -11407667.978 10 0 60967 58500.00000 0 -12693756.957 17056425.842 -14065678.776 10 0 60967 59400.00000 0 -12089542.683 15268914.563 -16449987.278 10 0 60967 60300.00000 0 -11556908.905 13174895.147 -18514217.743 10 0 60967 61200.00000 0 -11141346.471 10818578.829 -20218239.884 10 0 60967 62100.00000 0 -10880143.371 8253596.491 -21528949.991 10 0 60967 63000.00000 0 -10800711.896 5540989.997 -22420913.007 10 0 60967 63900.00000 0 -10919350.491 2746900.721 -22876853.416 10 0 60967 64800.00000 0 -11240492.450 -59948.576 -22887985.914 10 0 60967 65700.00000 0 -11756472.852 -2810873.933 -22454180.014 10 0 60967 66600.00000 0 -12447823.261 -5439843.848 -21583955.954 10 0 60967 67500.00000 0 -13284081.365 -7885978.324 -20294312.515 10 0 60967 68400.00000 0 -14225081.191 -10095830.272 -18610390.479 10 0 60967 69300.00000 0 -15222669.234 -12025355.371 -16564978.577 10 0 60967 70200.00000 0 -16222774.065 -13641489.704 -14197871.703 10 0 60967 71100.00000 0 -17167742.119 -14923270.870 -11555093.965 10 0 60967 72000.00000 0 -17998841.177 -15862457.345 -8688001.759 10 0 60967 72900.00000 0 -18658826.067 -16463621.910 -5652284.371 10 0 60967 73800.00000 0 -19094458.441 -16743716.891 -2506881.597 10 0 60967 74700.00000 0 -19258874.473 -16731131.048 687160.460 10 0 60967 75600.00000 0 -19113700.702 -16464279.179 3867873.057 10 0 60967 76500.00000 0 -18630828.891 -15989784.982 6973564.922 10 0 60967 77400.00000 0 -17793775.083 -15360334.604 9944015.434 10 0 60967 78300.00000 0 -16598565.529 -14632291.931 12721637.862 10 0 60967 79200.00000 0 -15054111.921 -13863176.367 15252590.392 10 0 60967 80100.00000 0 -13182059.704 -13109109.396 17487813.768 10 0 60967 81000.00000 0 -11016115.087 -12422337.198 19383976.080 10 0 60967 81900.00000 0 -8600877.925 -11848933.214 20904307.041 10 0 60967 82800.00000 0 -5990228.035 -11426776.840 22019306.332 10 0 60967 83700.00000 0 -3245330.785 -11183892.808 22707312.932 10 0 60967 84600.00000 0 -432343.442 -11137220.757 22954924.954 10 0 60967 85500.00000 0 2380083.961 -11291866.637 22757262.073 99